Location: Tucson
(32.2217°N, 110.9265°W)
Time: 09:21:38
(UTC-07:00)

Envisat - Pass Details

Date: 29 September 2021
Orbit: 764 x 766 km, 98.2° (Epoch: 22 October)

Event Time Altitude Azimuth Distance (km) Brightness Sun altitude
Rises 04:33:12 0° 29° (NNE) 3,231 6.8 -22.6°
Reaches altitude 10° 04:35:58 10° 44° (NE) 2,300 6.2 -22.0°
Maximum altitude 04:39:57 23° 96° (E) 1,578 5.4 -21.2°
Drops below altitude 10° 04:43:54 10° 148° (SSE) 2,289 5.7 -20.4°
Sets 04:46:38 0° 162° (SSE) 3,211 6.3 -19.8°
